Other Public Products
Issued by NWS Charleston, SC

Current Version | Previous Version | Graphics & Text | Print | Product List | Glossary On
Versions: 1 2 3 4 5 6 7 8 9 10 11 12 13 14 15 16 17 18 19 20 21 22 23 24 25 26 27 28 29 30 31 32 33 34 35 36 37 38 39 40 41 42 43 44 45 46 47 48 49 50
000 FPUS82 KCHS 161827 OPUCHS TEST...KCHS/KSAV Gateway Observations...TEST National Weather Service Charleston SC 100 PM EST SAT DEC 16 2017 NOTE: "fair" indicates few or no clouds below 12,000 feet with no significant weather and/or obstructions to visibility. SCZ050-WAZ558-NCZ071-TXZ119-213-PAZ071-DCZ001-FLZ074-172-MI076- NYZ176-178-MAZ016-IL014-TNZ027-NJZ106-GAZ044-MD014-161900- ...Gateway Observations for Charleston International... CITY SKY/WX TMP DP RH WIND PRES REMARKS Chas Airport MOSUNNY 52 31 44 VRB3 30.28F 6HR MIN TEMP: 32; 6HR MAX TEMP: 52; Seattle CLOUDY 41 37 86 SE8 30.34R 6HR MIN TEMP: 37; 6HR MAX TEMP: 42; Charlotte PTSUNNY 47 23 38 S9 30.25F 6HR MIN TEMP: 24; 6HR MAX TEMP: 48; Dallas DFW PTSUNNY 62 29 28 S16 30.07F 6HR MIN TEMP: 39; 6HR MAX TEMP: 62; Dallas Love PTSUNNY 60 30 32 S5 30.09F 6HR MIN TEMP: 39; 6HR MAX TEMP: 60; Philladelphia PTSUNNY 39 25 57 SW16 30.06F WCI 30 6HR MIN TEMP: 25; 6HR MAX TEMP: 39; Wash National MOSUNNY 46 23 40 SW14G22 30.11F 6HR MIN TEMP: 28; 6HR MAX TEMP: 46; Baltimore MOSUNNY 43 23 45 S10 30.08F 6HR MIN TEMP: 26; 6HR MAX TEMP: 43; Miami PTSUNNY 81 62 52 NE9 30.16F 6HR MIN TEMP: 63; 6HR MAX TEMP: 81; Detroit CLOUDY 33 27 78 NE8 29.98R WCI 26 6HR MIN TEMP: 33; 6HR MAX TEMP: 38; 6HR PCP: TRACE; Newark PTSUNNY 36 22 56 SW16 30.00F WCI 26 6HR MIN TEMP: 21; 6HR MAX TEMP: 36; Laguardia PTSUNNY 38 21 50 W16G22 29.98F WCI 29 6HR MIN TEMP: 28; 6HR MAX TEMP: 38; J F K PTSUNNY 35 25 66 SW20 30.01F WCI 24 6HR MIN TEMP: 26; 6HR MAX TEMP: 36; Boston Logan PTSUNNY 33 14 45 W16G24 29.89F WCI 23 6HR MIN TEMP: 22; 6HR MAX TEMP: 33; Ft. Lauderdale PTSUNNY 76 64 66 NE10 30.17F 6HR MIN TEMP: 59; 6HR MAX TEMP: 78; Chicago O`Hare MOSUNNY 43 25 49 SW8 29.89S 6HR MIN TEMP: 34; 6HR MAX TEMP: 43; Chicago Midway MOSUNNY 44 26 49 SW7 29.90F 6HR MIN TEMP: 34; 6HR MAX TEMP: 44; Houston Bush CLOUDY 57 37 47 E12 30.16F 6HR MIN TEMP: 46; 6HR MAX TEMP: 58; Houston Hobby CLOUDY 59 39 47 E10 30.16F 6HR MIN TEMP: 49; 6HR MAX TEMP: 59; Nashville PTSUNNY 49 29 46 SW13 30.22F 6HR MIN TEMP: 28; 6HR MAX TEMP: 49; Atlanta PTSUNNY 50 28 42 NW9 30.27F 6HR MIN TEMP: 27; 6HR MAX TEMP: 50; $$ GAZ044-118-TXZ119-213-NCZ071-DCZ001-MDZ014-506-PAZ021-071-NJZ106- NYZ176-178-MAZ106-OHZ011-021-055-MIZ076-KYZ091-ILZ014-INZ047- MNZ060-ONZ431-161900- ...Gateway Observations for Savannah International... CITY SKY/WX TMP DP RH WIND PRES REMARKS Savannah Arpt MOSUNNY 53 28 38 CALM 30.30F 6HR MIN TEMP: 34; 6HR MAX TEMP: 53; Atlanta PTSUNNY 50 28 42 NW9 30.27F 6HR MIN TEMP: 27; 6HR MAX TEMP: 50; Charlotte PTSUNNY 47 23 38 S9 30.25F 6HR MIN TEMP: 24; 6HR MAX TEMP: 48; Dallas DFW PTSUNNY 62 29 28 S16 30.07F 6HR MIN TEMP: 39; 6HR MAX TEMP: 62; Houston Bush CLOUDY 57 37 47 E12 30.16F 6HR MIN TEMP: 46; 6HR MAX TEMP: 58; Wash National MOSUNNY 46 23 40 SW14G22 30.11F 6HR MIN TEMP: 28; 6HR MAX TEMP: 46; Wash Dulles MOSUNNY 44 22 41 S18 30.09F 6HR MIN TEMP: 23; 6HR MAX TEMP: 44; Baltimore MOSUNNY 43 23 45 S10 30.08F 6HR MIN TEMP: 26; 6HR MAX TEMP: 43; Philadelphia PTSUNNY 39 25 57 SW16 30.06F WCI 30 6HR MIN TEMP: 25; 6HR MAX TEMP: 39; Newark PTSUNNY 36 22 56 SW16 30.00F WCI 26 6HR MIN TEMP: 21; 6HR MAX TEMP: 36; Laguardia PTSUNNY 38 21 50 W16G22 29.98F WCI 29 6HR MIN TEMP: 28; 6HR MAX TEMP: 38; J F K PTSUNNY 35 25 66 SW20 30.01F WCI 24 6HR MIN TEMP: 26; 6HR MAX TEMP: 36; Boston PTSUNNY 33 14 45 W16G24 29.89F WCI 23 6HR MIN TEMP: 22; 6HR MAX TEMP: 33; Pittsburg PTSUNNY 38 26 62 SW14 30.01F WCI 30 6HR MIN TEMP: 30; 6HR MAX TEMP: 38; 6HR PCP: TRACE; Akron PTSUNNY 36 26 67 SW17G23 29.98F WCI 26 6HR MIN TEMP: 30; 6HR MAX TEMP: 36; 6HR PCP: TRACE; Cleveland CLOUDY 39 27 62 SW13 30.00F WCI 31 6HR MIN TEMP: 34; 6HR MAX TEMP: 39; 6HR PCP: TRACE; Cincinnati SUNNY 47 29 49 SW20G26 30.06F 6HR MIN TEMP: 31; 6HR MAX TEMP: 47; Columbus SUNNY 45 27 49 SW18G28 30.04F Detroit CLOUDY 33 27 78 NE8 29.98R WCI 26 6HR MIN TEMP: 33; 6HR MAX TEMP: 38; 6HR PCP: TRACE; Chicago O`Hare MOSUNNY 43 25 49 SW8 29.89S 6HR MIN TEMP: 34; 6HR MAX TEMP: 43; Minneapolis CLOUDY 28 25 88 SE3 29.89R 6HR MIN TEMP: 25; 6HR MAX TEMP: 28; Indianapolis MOSUNNY 49 27 42 SW18 30.00F 6HR MIN TEMP: 30; 6HR MAX TEMP: 49; Toronto Canada MOSUNNY 21 10 63 N15 29.99R WCI 8 $$

USA.gov is the U.S. government's official web portal to all federal, state and local government web resources and services.